Regional Weather Roundup
Issued by NWS

Home | Current Version | Previous Version | Graphics & Text | Print | Product List | Glossary On
Versions: 1 2 3 4 5 6 7 8 9 10 11 12 13 14 15 16 17 18 19 20 21 22 23 24 25 26 27 28 29 30 31 32 33 34 35 36 37 38 39 40 41 42 43 44 45 46 47 48 49 50
000
ASUS45 KTFX 222119
RWRMT
MONTANA HOURLY WEATHER ROUNDUP
NATIONAL WEATHER SERVICE GREAT FALLS MT
319 PM MDT TUE JUL 22 2014

NOTE: "FAIR" INDICATES FEW OR NO CLOUDS BELOW 12000 FEET WITH NO
SIGNIFICANT WEATHER AND/OR OBSTRUCTIONS TO VISIBILITY.

* THESE STATIONS ARE NOT UNDER NWS QUALITY CONTROL. THEY DO NOT
   REPORT WEATHER SUCH AS PRECIPITATION OR FOG.

MTZ001>007-043-222200-
WEST OF THE DIVIDE
CITY           SKY/WX    TMP DP  RH WIND       PRES   REMARKS
KALISPELL      PTSUNNY   75  50  42 N6        30.17S
MISSOULA       PTCLDY    84  45  26 S6        30.11F
BUTTE          PTSUNNY   79  46  31 SW6       30.25F
MULLAN PASS    PTCLDY    64  50  61 VRB3      30.30R
* ESSEX        N/A       69  49  49 NW1G7      N/A
* LINCOLN      N/A       81  51  35 NW4G9      N/A
* LOOKOUT PASS N/A       70  52  53 VRB6G11    N/A
* POLSON       N/A       77  53  43 NW3        N/A
* RONAN APT    SUNNY     75  52  45 N8         N/A
* SEELEY LAKE  N/A       82  45  27 SW5G13     N/A
* THOMP F APT  SUNNY     80  40  24 S7G19      N/A
* YAAK HILL    N/A       62  55  78 S1         N/A
$$

MTZ008-052>055-222200-
SOUTHWEST MONTANA
CITY           SKY/WX    TMP DP  RH WIND       PRES   REMARKS
BOZEMAN        PTCLDY    84  48  29 N5        30.19F
DILLON         PTSUNNY   82  46  28 W3        30.21S
W YELLOWSTONE  PTCLDY    77  41  28 SW14G21   30.37F
* THREE FORKS  PTCLDY    84  59  43 VRB7       N/A   HI  84
* BOULDER HILL N/A       76  42  30 SW7G19     N/A
* MONIDA PASS  N/A       75  42  31 SE19G25    N/A
* RAYNOLDS PAS N/A       76  62  62 SW5G22     N/A
* WHITEHALL    N/A       86  51  30 SE5G10     N/A
* WISE RIVER   N/A       79  51  38 SE6G12     N/A
$$

MTZ009>010-012-014-046-048-049-054-222200-
EAST SLOPES AND CENTRAL MONTANA
CITY           SKY/WX    TMP DP  RH WIND       PRES   REMARKS
CUT BANK       CLOUDY    73  48  41 CALM      30.21S
GREAT FALLS    SUNNY     84  50  31 NE12      30.17F
HELENA         PTCLDY    84  54  36 E15       30.15F
MALMSTROM AFB  PTCLDY    81  48  32 NE8       30.18F
* CONRAD       PTSUNNY   75  59  58 N/A        N/A
* DEARBORN     N/A       84  54  36 VRB4G10    N/A
* EAST GLACIER N/A       70  43  38 W4G9       N/A
* MONARCH      N/A       73  37  27 W3G10      N/A
* ROGERS PASS  N/A       75  45  34 N4G10      N/A
* SAINT MARY   N/A       68  43  40 S4G10      N/A
* SWEET GRASS  N/A       74  44  34 SW9        N/A
* WHITE SULPH  N/A       81  54  39 S4G10      N/A
$$

MTZ011-013-016-021-035-040-045-047-050-051-222200-
NORTH CENTRAL MONTANA
CITY           SKY/WX    TMP DP  RH WIND       PRES   REMARKS
HAVRE          CLOUDY    82  50  33 S9        30.16S
LEWISTOWN      SUNNY     81  55  41 VRB3      30.23F HI  81
* FORT BENTON  PTSUNNY   82  50  33 NE5       30.17F
* CHESTER      N/A       77  49  37 S3G8       N/A
* DENTON       N/A       79  54  42 SE3G11     N/A
* GEYSER       N/A       79  49  35 N/A        N/A
* JUDITH GAP   N/A       78  49  36 SE4G9      N/A
* LOMA         N/A       79  54  42 E10        N/A
$$

MTZ017>020-022>027-061-062-222200-
NORTHEAST MONTANA
CITY           SKY/WX    TMP DP  RH WIND       PRES   REMARKS
GLASGOW        CLOUDY    84  50  31 VRB3      30.17S
GLENDIVE       PTSUNNY   84  52  33 NE7       30.18S
JORDAN         PTSUNNY   82  61  49 NE15G22   30.18S HI  83
SIDNEY         PTCLDY    86  55  35 E6        30.19S
WOLF POINT     CLOUDY    86  52  31 S7        30.18S
* BEAVER HILL  N/A       82  54  38 E7G14      N/A
* CIRCLE       N/A       76  63  64 N/A        N/A
* LINDSAY DVD  N/A       80  57  45 N9G14      N/A   HI  80
* NAVAJO       N/A       78  52  40 NE3        N/A
$$

MTZ028>042-056>058-222200-
SOUTHCENTRAL AND SOUTHEAST MONTANA
CITY           SKY/WX    TMP DP  RH WIND       PRES   REMARKS
BAKER          PTSUNNY   86  55  35 SE14      30.19S
BILLINGS       PTCLDY    88  52  29 E8        30.18F
LIVINGSTON     PTCLDY    90  46  22 NW8       30.20F
MILES CITY     PTCLDY    93  54  27 VRB5G20   30.10F
* LAUREL APT   SUNNY     90  52  27 N/A        N/A
* ROUNDUP APT  SUNNY     82  54  38 N/A        N/A
* ALZADA       N/A       86  59  40 E7G16      N/A   HI  85
* HYSHAM       N/A       88  55  33 NW3G8      N/A
* LAME DEER    N/A       88  53  30 S9G14      N/A
* REED POINT   N/A       90  49  24 W4G9       N/A
* ROSCOE HILL  N/A       82  48  31 NW9        N/A
$$

REGIONAL REPORTS...DAKOTAS
CITY           SKY/WX    TMP DP  RH WIND       PRES   REMARKS
WILLISTON      SUNNY     88  55  33 NW10      30.17S
DICKINSON      SUNNY     81  63  54 E7        30.21S HI  82
CROSBY         PTCLDY    77  59  54 NE5       30.21S
TIOGA          SUNNY     81  57  44 N7        30.23S HI  81
WATFORD CITY   PTSUNNY   82  57  43 CALM      30.16F HI  82
BISMARCK       PTSUNNY   81  59  47 VRB6      30.21S HI  81
GRAND FORKS    SUNNY     75  57  54 N14       30.16S
FARGO          SUNNY     79  57  47 N18G26    30.15S
BUFFALO SD     PTCLDY    88  57  35 SE13G20   30.14F
RAPID CITY     SUNNY     84  61  46 SE14      30.23S HI  84
$$

REGIONAL REPORTS...WYOMING/IDAHO/WASHINGTON
CITY           SKY/WX    TMP DP  RH WIND       PRES   REMARKS
GILLETTE       SUNNY     93  52  25 S14G22    30.20F
SHERIDAN       PTCLDY    93  48  21 N7        30.16F
CODY           PTCLDY    88  45  22 NE6       30.23F
YELLOWSTONE LA PTCLDY    73  36  26 SW9       30.50S
SALMON         PTSUNNY   90  45  21 S6        30.08F
MULLAN PASS    PTCLDY    64  50  61 VRB3      30.30S
SAND POINT     PTSUNNY   66  55  68 NE9       30.17S
SPOKANE        PTSUNNY   72  54  53 E8        30.13S
$$

REGIONAL REPORTS...ALBERTA
CITY           SKY/WX    TMP DP  RH WIND       PRES   REMARKS
CALGARY        PTSUNNY   72  54  53 S15       30.15S
LETHBRIDGE     CLOUDY    72  59  64 VRB2      30.18R
MEDICINE HAT   PTSUNNY   84  46  26 SE10      30.15R
EDMONTON       PTSUNNY   75  57  54 SE15G22   30.13S
WATERTON GATE  N/A       66  43  43 SW8        N/A
CARDSTON       N/A       72  57  59 NE5        N/A
MILK RIVER     N/A       75  43  32 SW9        N/A
$$

REGIONAL REPORTS...SASKATCHEWAN
CITY           SKY/WX    TMP DP  RH WIND       PRES   REMARKS
SWIFT CURRENT  PTCLDY    75  55  50 SE13      30.23S
MOOSE JAW      PTSUNNY   75  54  48 E5        30.24S
REGINA         SUNNY     77  50  39 N6        30.24S
VAL MARIE      N/A       75  57  54 NE3        N/A
ASSINIBOIA     N/A       75  54  48 E6         N/A
CORONACH       N/A       77  55  47 NE6        N/A

$$




USA.gov is the U.S. government's official web portal to all federal, state and local government web resources and services.